Location: Beutels
(47.8767°N, 9.8584°E)
Time: 12:45:51
(UTC+00:00)

ISS - Pass Details

Date: 24 January 2026
Orbit: 413 x 429 km, 51.6° (Epoch: 11 February)

Event Time Altitude Azimuth Distance (km) Brightness Sun altitude
Rises 18:30:07 0° 293° (WNW) 2,369 1.1 -23.5°
Reaches altitude 10° 18:32:13 10° 291° (WNW) 1,506 -0.1 -23.9°
Enters shadow 18:34:29 39° 282° (WNW) 649 -2.4 -24.3°
